N9BLE Weather Reports


time (UTC)temp
F
wind
direction
speed
knots
gust
knots
rain 1hr
in
rain 24hr
in
rain mn
in
humidity
%
barometer
mb
20260906133336 71 67 2.6 5.2 0.00 0.00 0.00 87 1023.8
20260906132831 72 77 1.7 1.7 0.00 0.00 0.00 86 1023.9
20260906132326 71 83 0.9 5.2 0.00 0.00 0.00 86 1023.7
20260906131822 71 83 1.7 4.3 0.00 0.00 0.00 88 1023.6
20260906131317 70 84 2.6 5.2 0.00 0.00 0.00 89 1023.6
20260906130813 70 83 2.6 4.3 0.00 0.00 0.00 89 1023.6
20260906130312 70 106 0.9 2.6 0.00 0.00 0.00 89 1023.7
20260906125811 70 92 2.6 4.3 0.00 0.00 0.00 89 1023.5
20260906125310 69 85 1.7 4.3 0.00 0.00 0.00 90 1023.6
20260906124810 68 85 1.7 2.6 0.00 0.00 0.00 95 1023.5
20260906124306 68 85 1.7 2.6 0.00 0.00 0.00 95 1023.5
20260906123804 68 85 1.7 2.6 0.00 0.00 0.00 95 1023.5
20260906123300 67 90 0.9 1.7 0.00 0.00 0.00 97 1023.4
20260906122759 67 82 0.9 0.9 0.00 0.00 0.00 97 1023.2
20260906122255 67 80 1.7 1.7 0.00 0.00 0.00 97 1023.3
20260906121751 67 42 0.0 0.0 0.00 0.00 0.00 98 1023.4
20260906121247 66 41 0.0 0.0 0.00 0.00 0.00 98 1023.5
20260906120743 66 32 0.0 0.0 0.00 0.00 0.00 98 1023.5
20260906120240 66 29 0.0 0.9 0.00 0.00 0.00 98 1023.3
20260906115735 66 26 0.0 0.0 0.00 0.00 0.00 98 1023.1
20260906115230 67 15 0.0 0.9 0.00 0.00 0.00 98 1022.8
20260906111850 66 88 0.9 1.7 0.00 0.00 0.00 98 1022.6
20260906111349 66 88 0.9 1.7 0.00 0.00 0.00 98 1022.6
20260906110844 66 73 0.0 0.9 0.00 0.00 0.00 98 1022.2
20260906110340 66 73 0.0 0.9 0.00 0.00 0.00 98 1022.4
20260906105839 66 66 0.0 0.9 0.00 0.00 0.00 98 1022.5
20260906105334 66 65 0.0 0.9 0.00 0.00 0.00 98 1022.3
20260906104831 65 37 0.0 0.0 0.00 0.00 0.00 97 1022.3
20260906104329 65 37 0.0 0.0 0.00 0.00 0.00 97 1022.3
20260906103828 65 37 0.0 0.0 0.00 0.00 0.00 97 1022.3
20260906101754 64 37 0.0 0.9 0.00 0.00 0.00 97 1022.0
20260906101248 64 37 0.0 0.9 0.00 0.00 0.00 97 1022.0
20260906100743 64 37 0.0 0.0 0.00 0.00 0.00 97 1022.0
20260906100243 64 37 0.0 0.0 0.00 0.00 0.00 97 1022.0
20260906095738 64 37 0.0 0.0 0.00 0.00 0.00 97 1021.9
20260906095233 64 37 0.0 0.0 0.00 0.00 0.00 97 1021.9
20260906081655 66 66 0.0 0.0 0.00 0.00 0.00 96 1021.9
20260906081150 66 66 0.0 0.0 0.00 0.00 0.00 96 1021.9
20260906080647 66 66 0.0 0.0 0.00 0.00 0.00 96 1021.8
20260906080143 66 66 0.0 0.0 0.00 0.00 0.00 96 1021.9
20260906075642 66 66 0.0 0.0 0.00 0.00 0.00 95 1021.9
20260906075136 66 66 0.0 0.0 0.00 0.00 0.00 95 1022.0
20260906073656 67 79 0.0 0.9 0.00 0.00 0.00 95 1021.8
20260906073151 67 79 0.0 0.9 0.00 0.00 0.00 95 1021.8
20260906072646 67 87 0.0 0.0 0.00 0.00 0.00 94 1021.9
20260906072142 67 87 0.0 0.0 0.00 0.00 0.00 94 1021.8
20260906071638 67 87 0.0 0.9 0.00 0.00 0.00 94 1022.0
20260906071138 67 87 0.0 0.0 0.00 0.00 0.00 94 1021.9
20260906070635 67 87 0.0 0.9 0.00 0.00 0.00 94 1022.0
20260906070130 67 85 0.0 0.0 0.00 0.00 0.00 94 1022.1
20260906065630 68 85 0.0 0.0 0.00 0.00 0.00 94 1022.0
20260906065125 68 85 0.0 0.0 0.00 0.00 0.00 93 1022.1
20260906064621 68 94 0.9 0.9 0.00 0.00 0.00 93 1022.0
20260906064121 68 94 0.9 0.9 0.00 0.00 0.00 93 1022.0
20260906063616 68 94 0.0 0.0 0.00 0.00 0.00 93 1022.1
20260906063112 68 84 0.9 0.9 0.00 0.00 0.00 92 1021.7
20260906062607 68 83 0.0 0.9 0.00 0.00 0.00 92 1021.7
20260906062106 68 74 0.9 1.7 0.00 0.00 0.00 92 1022.0
20260906061603 69 72 0.9 1.7 0.00 0.00 0.00 92 1021.9
20260906061102 69 81 0.0 0.9 0.00 0.00 0.00 91 1022.0
20260906060559 69 50 0.9 0.9 0.00 0.00 0.00 91 1021.9
20260906060056 69 90 0.9 0.9 0.00 0.00 0.00 90 1022.0
20260906055551 69 66 1.7 2.6 0.00 0.00 0.00 90 1021.8
20260906055046 69 60 0.9 0.9 0.00 0.00 0.00 90 1021.9
20260906054541 69 65 0.9 0.9 0.00 0.00 0.00 90 1021.8
20260906054036 69 88 0.0 0.9 0.00 0.00 0.00 90 1022.1
20260906053533 69 91 0.0 0.9 0.00 0.00 0.00 90 1021.9
20260906053028 69 86 0.9 0.9 0.00 0.00 0.00 90 1021.8
20260906052524 69 83 0.9 1.7 0.00 0.00 0.00 90 1021.8
20260906052021 70 87 0.9 1.7 0.00 0.00 0.00 90 1021.8
20260906051516 70 77 0.0 0.9 0.00 0.00 0.00 90 1021.8
20260906051011 70 79 0.9 0.9 0.00 0.00 0.00 90 1021.8
20260906050512 70 79 0.9 1.7 0.00 0.00 0.00 90 1021.8
20260906050006 70 100 0.9 0.9 0.00 0.00 0.00 90 1021.9
20260906045504 70 100 0.0 0.9 0.00 0.00 0.00 90 1021.7
20260906045001 69 82 0.0 0.9 0.00 0.00 0.00 90 1021.6
20260906044455 69 82 0.0 0.9 0.00 0.00 0.00 90 1021.6
20260906043951 69 82 0.0 0.9 0.00 0.00 0.00 90 1021.7
20260906043447 69 82 0.0 0.0 0.00 0.00 0.00 90 1021.6
20260906042943 69 82 0.0 0.9 0.00 0.00 0.00 90 1021.7
20260906042442 69 82 0.0 0.9 0.00 0.00 0.00 90 1021.6
20260906041942 69 82 0.0 0.0 0.00 0.00 0.00 90 1021.3
20260906041438 69 82 0.0 0.0 0.00 0.00 0.00 89 1021.2
20260906040937 70 82 0.0 0.0 0.00 0.00 0.00 89 1021.2
20260906040433 70 82 0.0 0.0 0.00 0.00 0.00 89 1021.2
20260906035928 70 82 0.0 0.0 0.00 0.00 0.00 89 1021.1
20260906035429 70 82 0.0 0.9 0.00 0.00 0.00 89 1021.0
20260906034924 70 82 0.0 0.0 0.00 0.00 0.00 89 1021.2
20260906034419 70 83 0.0 0.9 0.00 0.00 0.00 89 1021.2
20260906033915 70 84 0.9 1.7 0.00 0.00 0.00 88 1021.0
20260906033415 70 99 1.7 2.6 0.00 0.00 0.00 88 1020.9
20260906032910 70 74 0.0 1.7 0.00 0.00 0.00 88 1020.9
20260906032407 70 85 0.9 1.7 0.00 0.00 0.00 88 1020.9
20260906031907 70 86 0.9 2.6 0.00 0.00 0.00 88 1020.7
20260906031403 70 82 1.7 2.6 0.00 0.00 0.00 88 1020.7
20260906030857 70 92 2.6 2.6 0.00 0.00 0.00 87 1020.7
20260906030353 71 78 0.0 0.9 0.00 0.00 0.00 86 1020.7
20260906025852 71 79 0.9 0.9 0.00 0.00 0.00 85 1020.6
20260906025346 71 84 0.9 2.6 0.00 0.00 0.00 85 1020.7
20260906024845 71 104 2.6 4.3 0.00 0.00 0.00 85 1020.6
20260906024345 71 67 1.7 2.6 0.00 0.00 0.00 84 1020.5
20260906023840 72 90 1.7 2.6 0.00 0.00 0.00 84 1020.5
20260906023336 72 101 4.3 5.2 0.00 0.00 0.00 84 1020.6
20260906022831 71 68 2.6 6.1 0.00 0.00 0.00 84 1020.7
20260906022326 71 95 2.6 2.6 0.00 0.00 0.00 84 1020.7
20260906021822 71 92 2.6 4.3 0.00 0.00 0.00 84 1020.9
20260906021321 71 77 0.9 0.9 0.00 0.00 0.00 84 1020.6
20260906020822 71 103 2.6 2.6 0.00 0.00 0.00 84 1020.5
20260906020321 71 85 1.7 1.7 0.00 0.00 0.00 84 1020.7
20260906015816 71 75 3.5 5.2 0.00 0.00 0.00 84 1020.8
20260906015315 71 78 0.9 4.3 0.00 0.00 0.00 84 1020.8
20260906014815 71 80 0.9 1.7 0.00 0.00 0.00 84 1020.7
20260906014310 71 87 1.7 2.6 0.00 0.00 0.00 84 1020.9
20260906013806 72 80 2.6 2.6 0.00 0.00 0.00 83 1020.6
20260906013301 72 85 0.9 4.3 0.00 0.00 0.00 83 1020.6
20260906012756 72 72 0.9 2.6 0.00 0.00 0.00 83 1020.9
20260906012251 72 67 1.7 4.3 0.00 0.00 0.00 83 1020.6
20260906011746 72 79 3.5 6.1 0.00 0.00 0.00 84 1020.8
20260906011246 72 74 2.6 2.6 0.00 0.00 0.00 84 1020.6
20260906010742 73 88 4.3 6.1 0.00 0.00 0.00 83 1020.7
20260906010238 73 71 5.2 7.8 0.00 0.00 0.00 82 1020.7
20260906005733 73 109 0.9 2.6 0.00 0.00 0.00 83 1020.5
20260906005232 73 85 3.5 4.3 0.00 0.00 0.00 84 1020.7
20260906004731 73 83 2.6 5.2 0.00 0.00 0.00 83 1020.5
20260906004227 73 85 0.0 0.0 0.00 0.00 0.00 83 1020.5
20260906003722 73 74 0.9 0.9 0.00 0.00 0.00 82 1020.2
20260906003217 74 86 0.9 1.7 0.00 0.00 0.00 83 1020.4
20260906002717 74 351 0.0 2.6 0.00 0.00 0.00 83 1020.2
20260906002212 75 95 0.9 1.7 0.00 0.00 0.00 83 1020.2
20260906001707 75 96 0.9 1.7 0.00 0.00 0.00 81 1020.2
20260906001207 75 93 0.9 4.3 0.00 0.00 0.00 80 1020.0
20260906000703 76 93 1.7 2.6 0.00 0.00 0.00 80 1020.0
20260906000158 76 105 1.7 2.6 0.00 0.00 0.00 80 1019.9
20260905235657 76 33 2.6 4.3 0.00 0.00 0.00 80 1019.9
20260905235152 77 25 2.6 2.6 0.00 0.00 0.00 79 1019.6
20260905234647 77 90 1.7 4.3 0.00 0.00 0.00 78 1019.6
20260905234143 78 110 1.7 2.6 0.00 0.00 0.00 77 1019.6
20260905233638 78 77 2.6 4.3 0.00 0.00 0.00 76 1019.5
20260905233137 78 77 1.7 2.6 0.00 0.00 0.00 75 1019.4
20260905232633 78 83 0.9 1.7 0.00 0.00 0.00 75 1019.4
20260905232128 79 84 3.5 4.3 0.00 0.00 0.00 73 1019.3
20260905231623 80 27 0.9 1.7 0.00 0.00 0.00 71 1019.5
20260905231119 80 83 0.9 2.6 0.00 0.00 0.00 69 1019.4
20260905230615 81 109 1.7 2.6 0.00 0.00 0.00 69 1019.4
20260905230113 80 77 0.9 2.6 0.00 0.00 0.00 69 1019.5
20260905225613 80 114 0.9 1.7 0.00 0.00 0.00 69 1019.4
20260905225108 81 327 2.6 4.3 0.00 0.00 0.00 67 1019.3
20260905224608 82 89 0.9 1.7 0.00 0.00 0.00 67 1019.3
20260905224107 82 76 1.7 2.6 0.00 0.00 0.00 66 1019.0
20260905223604 82 140 2.6 6.1 0.00 0.00 0.00 64 1019.1
20260905223101 83 94 0.9 1.7 0.00 0.00 0.00 64 1019.1
20260905222600 82 325 0.9 1.7 0.00 0.00 0.00 64 1019.0
20260905222055 82 30 0.0 2.6 0.00 0.00 0.00 66 1019.1
20260905221552 82 78 0.9 4.3 0.00 0.00 0.00 64 1019.2
20260905221048 83 50 1.7 2.6 0.00 0.00 0.00 63 1019.1
20260905220543 82 90 1.7 2.6 0.00 0.00 0.00 64 1019.1
20260905220039 82 37 1.7 4.3 0.00 0.00 0.00 66 1019.0
20260905215538 82 38 0.0 2.6 0.00 0.00 0.00 65 1019.2
20260905215035 82 22 0.9 4.3 0.00 0.00 0.00 64 1019.2
20260905214531 81 23 0.9 0.9 0.00 0.00 0.00 66 1019.0
20260905214025 81 94 1.7 1.7 0.00 0.00 0.00 66 1019.1
20260905213520 80 50 1.7 1.7 0.00 0.00 0.00 68 1019.1
20260905213016 82 100 1.7 4.3 0.00 0.00 0.00 66 1019.1
20260905212511 81 15 1.7 1.7 0.00 0.00 0.00 66 1019.1
20260905212010 80 13 0.9 2.6 0.00 0.00 0.00 69 1019.4
20260905211506 79 356 1.7 2.6 0.00 0.00 0.00 70 1019.5
20260905211001 78 68 0.0 0.9 0.00 0.00 0.00 73 1019.3
20260905210457 77 90 0.0 2.6 0.00 0.00 0.00 76 1019.5
20260905205956 80 62 0.9 1.7 0.00 0.00 0.00 73 1019.5
20260905205451 81 93 0.9 2.6 0.00 0.00 0.00 73 1019.2
20260905204949 82 93 2.6 2.6 0.00 0.00 0.00 69 1019.3
20260905204446 80 85 0.9 2.6 0.00 0.00 0.00 70 1019.4
20260905203945 79 52 0.9 2.6 0.00 0.00 0.00 70 1019.6
20260905203440 78 100 1.7 1.7 0.00 0.00 0.00 71 1019.5
20260905202936 77 96 0.9 1.7 0.00 0.00 0.00 75 1019.7
20260905202431 78 43 1.7 1.7 0.00 0.00 0.00 76 1019.7
20260905201926 79 76 1.7 2.6 0.00 0.00 0.00 76 1019.7
20260905201421 80 54 0.0 1.7 0.00 0.00 0.00 75 1019.8
20260905200921 78 82 0.9 0.9 0.00 0.00 0.00 74 1019.6
20260905200417 79 78 0.9 2.6 0.00 0.00 0.00 73 1019.6
20260905195915 79 67 0.0 0.9 0.00 0.00 0.00 74 1019.7
20260905195410 81 72 1.7 2.6 0.00 0.00 0.00 70 1019.6
20260905194906 80 53 1.7 4.3 0.00 0.00 0.00 72 1019.7
20260905194406 81 67 1.7 1.7 0.00 0.00 0.00 71 1019.6
20260905193906 81 100 2.6 5.2 0.00 0.00 0.00 70 1019.6
20260905193401 81 89 2.6 6.1 0.00 0.00 0.00 71 1019.5
20260905192856 80 58 2.6 4.3 0.00 0.00 0.00 72 1019.5
20260905192351 80 76 4.3 6.1 0.00 0.00 0.00 72 1019.5
20260905191851 82 96 2.6 5.2 0.00 0.00 0.00 70 1019.5
20260905191350 83 67 1.7 2.6 0.00 0.00 0.00 70 1019.4
20260905190849 83 50 1.7 2.6 0.00 0.00 0.00 68 1019.5
20260905190348 82 132 2.6 4.3 0.00 0.00 0.00 69 1019.5
20260905185847 82 75 1.7 4.3 0.00 0.00 0.00 69 1019.5
20260905185343 82 75 1.7 2.6 0.00 0.00 0.00 69 1019.5
20260905184841 84 73 1.7 2.6 0.00 0.00 0.00 68 1019.6
20260905184341 82 13 1.7 1.7 0.00 0.00 0.00 68 1019.6
20260905183840 82 60 1.7 2.6 0.00 0.00 0.00 71 1019.8
20260905183336 82 74 1.7 4.3 0.00 0.00 0.00 69 1019.7
20260905182836 82 45 1.7 5.2 0.00 0.00 0.00 71 1019.6
20260905182335 80 77 0.9 1.7 0.00 0.00 0.00 73 1019.6
20260905181831 83 79 2.6 4.3 0.00 0.00 0.00 71 1019.8
20260905181330 83 8 5.2 6.1 0.00 0.00 0.00 68 1019.7
20260905180829 80 92 0.9 1.7 0.00 0.00 0.00 72 1019.7
20260905180325 81 95 0.9 2.6 0.00 0.00 0.00 75 1019.7
20260905175820 82 12 3.5 5.2 0.00 0.00 0.00 73 1019.7
20260905175314 82 57 0.9 0.9 0.00 0.00 0.00 73 1019.5
20260905174809 82 59 0.9 1.7 0.00 0.00 0.00 72 1019.5
20260905174305 81 34 0.9 2.6 0.00 0.00 0.00 72 1019.4
20260905173801 81 53 0.9 1.7 0.00 0.00 0.00 74 1019.5
20260905173257 82 77 0.9 2.6 0.00 0.00 0.00 73 1019.6
20260905172756 82 53 1.7 1.7 0.00 0.00 0.00 72 1019.5
20260905172255 82 23 1.7 2.6 0.00 0.00 0.00 73 1019.6
20260905171751 81 53 0.9 0.9 0.00 0.00 0.00 73 1019.5
20260905171248 81 75 1.7 2.6 0.00 0.00 0.00 75 1019.5
20260905170744 82 57 1.7 2.6 0.00 0.00 0.00 75 1019.6
20260905170239 80 83 1.7 4.3 0.00 0.00 0.00 78 1019.7
20260905165738 81 342 1.7 2.6 0.00 0.00 0.00 76 1019.5
20260905165234 80 103 0.9 2.6 0.00 0.00 0.00 78 1019.8
20260905164733 80 94 0.0 0.9 0.00 0.00 0.00 77 1019.7
20260905164228 80 86 0.9 1.7 0.00 0.00 0.00 80 1019.8
20260905163725 80 80 1.7 1.7 0.00 0.00 0.00 79 1019.6
20260905163220 78 65 0.0 0.9 0.00 0.00 0.00 81 1019.8
20260905162716 79 78 2.6 4.3 0.00 0.00 0.00 81 1019.7
20260905162216 79 20 0.9 1.7 0.00 0.00 0.00 81 1019.6
20260905161711 79 71 1.7 2.6 0.00 0.00 0.00 81 1020.2
20260905161209 78 91 1.7 1.7 0.00 0.00 0.00 84 1019.7
20260905160708 78 101 1.7 1.7 0.00 0.00 0.00 83 1020.2
20260905160208 77 29 0.0 0.9 0.00 0.00 0.00 84 1019.7
20260905155702 77 72 0.9 1.7 0.00 0.00 0.00 85 1019.9
20260905155202 77 80 0.9 1.7 0.00 0.00 0.00 84 1019.8
20260905154655 77 135 2.6 2.6 0.00 0.00 0.00 83 1019.9
20260905154151 77 65 1.7 1.7 0.00 0.00 0.00 84 1019.8
20260905153647 77 48 0.9 1.7 0.00 0.00 0.00 85 1019.6
20260905153143 76 22 0.9 2.6 0.00 0.00 0.00 86 1019.6
20260905152637 75 102 2.6 2.6 0.00 0.00 0.00 86 1019.8
20260905152132 75 27 0.9 1.7 0.00 0.00 0.00 87 1019.7
20260905151626 75 78 2.6 1.7 0.00 0.00 0.00 87 1019.7
20260905151122 75 40 1.7 1.7 0.00 0.00 0.00 86 1019.4
20260905150617 75 89 1.7 1.7 0.00 0.00 0.00 87 1019.4
20260905150115 74 48 0.0 1.7 0.00 0.00 0.00 88 1019.4
20260905145615 74 74 0.9 1.7 0.00 0.00 0.00 89 1019.2
20260905145114 73 74 0.9 1.7 0.00 0.00 0.00 90 1019.2
20260905144608 74 35 2.6 4.3 0.00 0.00 0.00 89 1019.1
20260905144108 74 342 0.9 5.2 0.00 0.00 0.00 90 1019.1
20260905143607 73 77 0.9 1.7 0.00 0.00 0.00 91 1019.0
20260905143103 73 69 0.9 1.7 0.00 0.00 0.00 91 1019.0
20260905142602 74 79 1.7 5.2 0.00 0.00 0.00 91 1019.2
20260905142102 74 49 2.6 4.3 0.00 0.00 0.00 90 1019.0
20260905141601 74 47 1.7 1.7 0.00 0.00 0.00 92 1019.2
20260905141058 73 75 0.9 1.7 0.00 0.00 0.00 92 1019.3
20260905140553 74 72 2.6 4.3 0.00 0.00 0.00 92 1019.0
20260905140052 73 103 1.7 1.7 0.00 0.00 0.00 92 1019.1
20260905135548 74 52 1.7 1.7 0.00 0.00 0.00 92 1019.0
20260905135047 74 86 2.6 2.6 0.00 0.00 0.00 92 1018.9
20260905134543 74 98 1.7 1.7 0.00 0.00 0.00 93 1018.8
20260905134041 74 59 0.0 1.7 0.00 0.00 0.00 92 1018.8